Regional Weather Roundup
Issued by NWS

Home | Current Version | Previous Version | Text Only | Print | Product List | Glossary On
Versions: 1 2 3 4 5 6 7 8 9 10 11 12 13 14 15 16 17 18 19 20 21 22 23 24 25 26 27 28 29 30 31 32 33 34 35 36 37 38 39 40 41 42 43 44 45 46 47 48 49 50
000
ASUS44 KEWX 281211
RWRTX
SOUTH TEXAS REGIONAL WEATHER ROUNDUP
NATIONAL WEATHER SERVICE AUSTIN/SAN ANTONIO TX
700 AM CDT THU JUL 28 2016

NOTE: "FAIR" INDICATED FEW OR NO CLOUDS BELOW 12,000 FEET WITH NO
SIGNIFICANT WEATHER AND/OR OBSTRUCTIONS TO VISIBILITY.

* - THESE STATIONS ARE NOT NWS OR FAA STATIONS...AND ARE NOT SUBJECT
    TO NWS AND FAA QUALITY CONTROL.

TXZ171-172-183>190-281300-
TEXAS HILL COUNTRY AND EDWARDS PLATEAU

CITY           SKY/WX    TMP DP  RH WIND       PRES   REMARKS
JUNCTION       CLEAR     73  69  87 NE5       30.03R
6HR MIN TEMP:  72; 6HR MAX TEMP:  76;

*LLANO         CLOUDY    77  77 100 S6        30.05R
BURNET         CLOUDY    76  72  87 S8        30.04R
6HR MIN TEMP:  75; 6HR MAX TEMP:  78;

*HORSESHOE BAY CLOUDY    76  72  87 S3        30.01S
6HR MIN TEMP:  76; 6HR MAX TEMP:  77;

*KERRVILLE     CLEAR     74  72  93 S7        30.03S
6HR MIN TEMP:  72; 6HR MAX TEMP:  74;

*FREDERICKSBRG CLOUDY    74  70  87 S7        30.04R
6HR MIN TEMP:  72; 6HR MAX TEMP:  74;

*ROCKSPRINGS   CLOUDY    72  70  94 SE7       30.07R FOG
*BOERNE STAGE  CLOUDY    73  72  94 S5        30.04R
*CASTROVILLE   CLOUDY    77  76  95 CALM      30.01S
HONDO          CLOUDY    77  75  93 SE8       30.02R
6HR MIN TEMP:  74; 6HR MAX TEMP:  77;

*UVALDE        CLEAR     73  72  98 E7        29.99R FOG
6HR MIN TEMP:  73; 6HR MAX TEMP:  75;

DEL RIO        CLEAR     76  72  87 E8        29.95S
6HR MIN TEMP:  76; 6HR MAX TEMP:  78;

LAUGHLIN AFB   PTCLDY    75  73  94 E7        29.96R
6HR MIN TEMP:  75; 6HR MAX TEMP:  77;

CARRIZO SPRGS  PTCLDY    75  72  88 E3        29.94R
*EAGLE PASS    PTSUNNY   75  72  88 E7        29.96R
$$

TXZ173-191>194-202-209-217>225-228-281300-
CENTRAL AND SOUTH CENTRAL TEXAS

CITY           SKY/WX    TMP DP  RH WIND       PRES   REMARKS
GEORGETOWN     MOCLDY    77  72  83 SW6       30.00R
AUSTIN/BERGSTM CLOUDY    74  74 100 CALM      29.99R
6HR MIN TEMP:  73; 6HR MAX TEMP:  75;

AUSTIN/MABRY   CLOUDY    76  74  93 CALM      30.01R
6HR MIN TEMP:  75; 6HR MAX TEMP:  77;

*AUSTIN/EXEC     N/A     75  75 100 CALM      30.01R FOG
*LAGO VISTA    CLOUDY    77  73  86 SW8       30.03R
6HR MIN TEMP:  76; 6HR MAX TEMP:  77;

SAN MARCOS     MOCLDY    73  73 100 CALM      30.02R FOG
NEW BRAUNFELS  CLOUDY    78  76  93 CALM      29.99R
6HR MIN TEMP:  75; 6HR MAX TEMP:  78;

RANDOLPH AFB   MOCLDY    75  75 100 CALM      30.00R
6HR MIN TEMP:  74; 6HR MAX TEMP:  76;

PT SAN ANTONIO CLOUDY    76  74  94 NE3       29.99R
6HR MIN TEMP:  75; 6HR MAX TEMP:  78; 6HR PCP: TRACE;

SAN ANTONIO    CLOUDY    78  75  90 S3        30.00S
6HR MIN TEMP:  75; 6HR MAX TEMP:  78;

STINSON FIELD  CLOUDY    77  74  90 CALM      29.98R
6HR MIN TEMP:  76; 6HR MAX TEMP:  78;

*PLEASANTON    MOCLDY    76  75  96 CALM      29.98R FOG
6HR MIN TEMP:  76; 6HR MAX TEMP:  77;

*LA GRANGE       N/A     79  78  98 CALM      29.98R FOG
6HR MIN TEMP:  77; 6HR MAX TEMP:  79; 6HR PCP:  0.02;

*GIDDINGS      CLOUDY    76  75  96 CALM      30.04R FOG
6HR MIN TEMP:  75; 6HR MAX TEMP:  77;

*GONZALES      PTCLDY    77  77 100 CALM      29.99R FOG
6HR MIN TEMP:  76; 6HR MAX TEMP:  79;

$$

TXZ163>164-176>182-195>201-210>213-226-227-235-281300-
SOUTHEAST TEXAS

CITY           SKY/WX    TMP DP  RH WIND       PRES   REMARKS
COLLEGE STN    CLEAR     76  75  97 SE3       30.00R
6HR MIN TEMP:  76; 6HR MAX TEMP:  77;

*BRYAN         CLEAR     76  76 100 MISG      30.01R
6HR MIN TEMP:  74; 6HR MAX TEMP:  77;

*CALDWELL      PTCLDY    73  73 100 CALM      30.03R FOG
*CROCKETT      PTCLDY    75  75 100 MISG      30.03R FOG
*BRENHAM       CLEAR     78  77  98 CALM      30.00S FOG
6HR MIN TEMP:  75; 6HR MAX TEMP:  78;

HUNTSVILLE     CLOUDY    79  76  90 S7        30.00R
6HR MIN TEMP:  77; 6HR MAX TEMP:  79;

CONROE         CLOUDY    75  74  96 CALM      30.01R FOG
6HR MIN TEMP:  75; 6HR MAX TEMP:  78;

HOUSTON BUSH   CLOUDY    80  78  94 S3        30.00R
6HR MIN TEMP:  79; 6HR MAX TEMP:  82;

HOUSTON HOBBY  CLOUDY    81  78  91 S3        29.99R
6HR MIN TEMP:  81; 6HR MAX TEMP:  82;

*HOUSTON SW AP CLOUDY    77  76  97 CALM      30.00R
6HR MIN TEMP:  76; 6HR MAX TEMP:  78;

PEARLAND       CLOUDY    84  78  82 CALM      30.00R HX  95
6HR MIN TEMP:  83; 6HR MAX TEMP:  84;

HOUSTON HOOKS  CLOUDY    78  77  96 CALM      30.00R
6HR MIN TEMP:  77; 6HR MAX TEMP:  80;

ELLINGTON FLD  MOCLDY    82  77  83 CALM      30.00R HX  91
SUGAR LAND     CLOUDY    79  76  90 CALM      29.99R
6HR MIN TEMP:  78; 6HR MAX TEMP:  80;

*HOUSTON EXEC  CLOUDY    81  77  89 CALM      30.01R
*CLEVELAND MUN CLOUDY    75  75 100 CALM      30.02R FOG
6HR MIN TEMP:  75; 6HR MAX TEMP:  76;

*WHARTON       CLOUDY    79  77  94 CALM      30.00R
6HR MIN TEMP:  79; 6HR MAX TEMP:  80;

*COLUMBUS      FAIR      76  76 100 N3        29.99R FOG
6HR MIN TEMP:  76; 6HR MAX TEMP:  78;

*EAGLE LAKE    SUNNY     77  77  99 NE3       29.99R FOG
6HR MIN TEMP:  77; 6HR MAX TEMP:  78;

$$

TXZ214>216-236>238-281300-
THE UPPER TEXAS COAST

CITY           SKY/WX    TMP DP  RH WIND       PRES   REMARKS
*ORANGE        CLOUDY    82  76  81 CALM      30.02R HX  90
6HR MIN TEMP:  80; 6HR MAX TEMP:  83;

PORT ARTHUR    CLOUDY    81  77  88 SW3       29.99R
6HR MIN TEMP:  80; 6HR MAX TEMP:  82;

GALVESTON      MOCLDY    84  78  82 S7        30.00R HX  95
6HR MIN TEMP:  84; 6HR MAX TEMP:  85;

ANGLETON       CLOUDY    82  78  88 CALM      29.99R HX  91
6HR MIN TEMP:  81; 6HR MAX TEMP:  85;

*BAY CITY      CLOUDY    78  73  85 CALM      29.99R
PALACIOS       CLOUDY    85  77  77 S12       29.98R HX  95
6HR MIN TEMP:  81; 6HR MAX TEMP:  85;

$$

TXZ229>234-239>247-281300-
TEXAS COASTAL BEND AND RIO GRANDE PLAINS

CITY           SKY/WX    TMP DP  RH WIND       PRES   REMARKS
VICTORIA       CLOUDY    78  76  93 S3        29.97S
6HR MIN TEMP:  77; 6HR MAX TEMP:  81;

*BEEVILLE      CLOUDY    71  71 100 E3        29.97R FOG
6HR MIN TEMP:  71; 6HR MAX TEMP:  78;

ROCKPORT       PTCLDY    84  77  79 S5        29.96R HX  94
6HR MIN TEMP:  84; 6HR MAX TEMP:  85;

*PORT ARANSAS  CLOUDY    83  80  88 S10       29.95S HX  95
6HR MIN TEMP:  83; 6HR MAX TEMP:  84;

*PORT LAVACA   CLOUDY    79  73  83 S7        29.98R
*INGLESIDE     MOCLDY    84  79  84 S6        29.95S HX  96
CORPUS CHRISTI MOCLDY    81  78  91 SE6       29.95R
6HR MIN TEMP:  81; 6HR MAX TEMP:  83;

CORPUS NAS     MOCLDY    83  79  88 S8        29.95R HX  94
*ROBSTOWN      PTCLDY    82  78  89 SE5       29.96R HX  91
6HR MIN TEMP:  82; 6HR MAX TEMP:  84;

ALICE          PTCLDY    78  76  93 E5        29.94S
6HR MIN TEMP:  78; 6HR MAX TEMP:  81;

KINGSVILLE NAS MOCLDY    79  79 100 SE5       29.94S
6HR MIN TEMP:  79; 6HR MAX TEMP:  82;

COTULLA        CLEAR     77  75  93 E8        29.95R
6HR MIN TEMP:  77; 6HR MAX TEMP:  79;

*FAITH RANCH   MOCLDY    79  72  78 E3        29.95R
LAREDO         CLEAR     80  75  84 SE9       29.93R
6HR MIN TEMP:  80; 6HR MAX TEMP:  84;

$$

TXZ248>255-281300-
DEEP SOUTH TEXAS

CITY           SKY/WX    TMP DP  RH WIND       PRES   REMARKS
BROWNSVILLE    PTCLDY    81  78  91 SE9       29.94R
6HR MIN TEMP:  81; 6HR MAX TEMP:  84;

PORT ISABEL    PTCLDY    83  78  85 SE12      29.93R HX  93
6HR MIN TEMP:  83; 6HR MAX TEMP:  84;

*SOUTH PADRE     N/A     81  77  89 S6        29.94S
HARLINGENC1F1C2F2C3F3C4F4C5F5C6F6C7M1C8M2C9!


USA.gov is the U.S. government's official web portal to all federal, state and local government web resources and services.